When you browse on this site, cookies collect data to enhance your experience and personalize the content and advertising you see.
Visit our Privacy Policy to learn more. By continuing to use the site, you agree to this use of cookies and data.
  • In Netherlands
  • List of Countries
  • For 7 days
  • Water Temperature
  • Satellite Maps
  • Weather Map
  • Weather Widgets
  • user-avatar
    Login

    Hourly Weather Konstantyna

    Today, 19 July, Friday

    Time Temperature Precipitation Wind Pressure Humidity
    00:00 +21°C° 0 mm 0 mps 711 mmHg 50%
    01:00 +21°C° 0 mm 0 mps 710 mmHg 51%
    02:00 +20°C° 0 mm 0 mps 710 mmHg 51%
    03:00 +20°C° 0 mm 0 mps 710 mmHg 52%
    04:00 +21°C° 0 mm 0 mps 710 mmHg 49%
    05:00 +22°C° 0 mm 0 mps 710 mmHg 46%
    06:00 +22°C° 0 mm 0 mps 711 mmHg 43%
    07:00 +25°C° 0 mm 0 mps 711 mmHg 38%
    08:00 +27°C° 0 mm 0 mps 712 mmHg 32%
    09:00 +31°C° 0 mm 1 mps 712 mmHg 26%
    10:00 +32°C° 0 mm 1 mps 712 mmHg 24%
    11:00 +34°C° 0 mm 1 mps 712 mmHg 22%
    12:00 +35°C° 0 mm 1 mps 713 mmHg 19%
    13:00 +37°C° 0 mm 2 mps 712 mmHg 19%
    14:00 +37°C° 0 mm 4 mps 712 mmHg 19%
    15:00 +37°C° 0 mm 5 mps 711 mmHg 19%
    16:00 +35°C° 0 mm 4 mps 711 mmHg 24%
    17:00 +34°C° 0 mm 4 mps 711 mmHg 29%
    18:00 +32°C° 0 mm 4 mps 711 mmHg 34%
    19:00 +29°C° 0 mm 3 mps 711 mmHg 39%
    20:00 +28°C° 0 mm 2 mps 711 mmHg 43%
    21:00 +26°C° 0 mm 1 mps 710 mmHg 47%
    22:00 +26°C° 0 mm 1 mps 710 mmHg 47%
    23:00 +26°C° 0 mm 1 mps 710 mmHg 47%

    Tomorrow, 20 July, Saturday

    Time Temperature Precipitation Wind Pressure Humidity
    00:00 +26°C° 0 mm 1 mps 710 mmHg 47%
    01:00 +26°C° 0 mm 1 mps 710 mmHg 47%
    02:00 +25°C° 0 mm 1 mps 710 mmHg 46%
    03:00 +25°C° 0 mm 1 mps 709 mmHg 46%
    04:00 +26°C° 0 mm 1 mps 710 mmHg 42%
    05:00 +27°C° 0 mm 1 mps 710 mmHg 39%
    06:00 +28°C° 0 mm 1 mps 711 mmHg 36%
    07:00 +31°C° 0 mm 2 mps 711 mmHg 32%
    08:00 +34°C° 0 mm 3 mps 711 mmHg 28%
    09:00 +36°C° 0 mm 4 mps 712 mmHg 24%
    10:00 +39°C° 0 mm 5 mps 712 mmHg 22%
    11:00 +40°C° 0 mm 5 mps 712 mmHg 20%
    12:00 +42°C° 0 mm 6 mps 712 mmHg 19%
    13:00 +41°C° 0.1 mm 6 mps 712 mmHg 21%
    14:00 +40°C° 0.1 mm 6 mps 711 mmHg 23%
    15:00 +39°C° 0.1 mm 6 mps 711 mmHg 25%
    16:00 +37°C° 0.1 mm 5 mps 711 mmHg 27%
    17:00 +36°C° 0.1 mm 4 mps 711 mmHg 30%
    18:00 +35°C° 0.1 mm 3 mps 711 mmHg 32%
    19:00 +32°C° 0.3 mm 2 mps 711 mmHg 37%
    20:00 +31°C° 0.3 mm 2 mps 711 mmHg 41%
    21:00 +29°C° 0.3 mm 1 mps 711 mmHg 46%
    22:00 +29°C° 0 mm 1 mps 711 mmHg 46%
    23:00 +29°C° 0 mm 1 mps 711 mmHg 46%

    Day after tomorrow, 21 July, Sunday

    Time Temperature Precipitation Wind Pressure Humidity
    00:00 +27°C° 0 mm 0 mps 711 mmHg 46%
    01:00 +28°C° 0 mm 1 mps 711 mmHg 47%
    02:00 +28°C° 0 mm 1 mps 711 mmHg 47%
    03:00 +27°C° 0 mm 1 mps 710 mmHg 47%
    04:00 +28°C° 0 mm 1 mps 711 mmHg 46%
    05:00 +28°C° 0 mm 1 mps 711 mmHg 45%
    06:00 +29°C° 0 mm 1 mps 712 mmHg 43%
    07:00 +31°C° 0 mm 1 mps 712 mmHg 39%
    08:00 +32°C° 0 mm 2 mps 712 mmHg 35%
    09:00 +35°C° 0 mm 2 mps 713 mmHg 31%
    10:00 +36°C° 0 mm 3 mps 713 mmHg 27%
    11:00 +37°C° 0 mm 4 mps 713 mmHg 24%
    12:00 +38°C° 0 mm 4 mps 713 mmHg 20%
    13:00 +39°C° 0 mm 5 mps 713 mmHg 21%
    14:00 +39°C° 0 mm 5 mps 713 mmHg 22%
    15:00 +38°C° 0 mm 6 mps 712 mmHg 23%
    16:00 +35°C° 0 mm 5 mps 712 mmHg 29%
    17:00 +33°C° 0 mm 4 mps 712 mmHg 35%
    18:00 +30°C° 0 mm 4 mps 712 mmHg 41%
    19:00 +29°C° 0 mm 3 mps 712 mmHg 49%
    20:00 +27°C° 0 mm 2 mps 712 mmHg 58%
    21:00 +25°C° 0 mm 1 mps 713 mmHg 67%
    22:00 +25°C° 0 mm 1 mps 712 mmHg 66%
    23:00 +25°C° 0 mm 1 mps 712 mmHg 66%

    22 July, Monday

    Time Temperature Precipitation Wind Pressure Humidity
    00:00 +22°C° 0 mm 0 mps 712 mmHg 65%
    01:00 +22°C° 0 mm 0 mps 712 mmHg 66%
    02:00 +22°C° 0 mm 0 mps 712 mmHg 66%
    03:00 +21°C° 0 mm 0 mps 711 mmHg 66%
    04:00 +22°C° 0 mm 0 mps 712 mmHg 62%
    05:00 +23°C° 0 mm 0 mps 712 mmHg 59%
    06:00 +24°C° 0 mm 0 mps 713 mmHg 55%
    07:00 +28°C° 0 mm 1 mps 713 mmHg 49%
    08:00 +30°C° 0 mm 1 mps 714 mmHg 43%
    09:00 +32°C° 0 mm 1 mps 714 mmHg 37%
    10:00 +34°C° 0 mm 2 mps 714 mmHg 33%
    11:00 +35°C° 0 mm 2 mps 714 mmHg 29%
    12:00 +37°C° 0 mm 3 mps 714 mmHg 25%
    13:00 +37°C° 0 mm 3 mps 714 mmHg 25%
    14:00 +37°C° 0 mm 4 mps 713 mmHg 26%
    15:00 +37°C° 0 mm 5 mps 713 mmHg 26%
    16:00 +35°C° 0 mm 5 mps 713 mmHg 30%
    17:00 +34°C° 0 mm 4 mps 712 mmHg 33%
    18:00 +32°C° 0 mm 4 mps 712 mmHg 36%
    19:00 +29°C° 0 mm 3 mps 712 mmHg 41%
    20:00 +28°C° 0 mm 2 mps 712 mmHg 45%
    21:00 +27°C° 0 mm 1 mps 712 mmHg 49%
    22:00 +26°C° 0 mm 1 mps 712 mmHg 49%
    23:00 +26°C° 0 mm 1 mps 712 mmHg 49%

    23 July, Tuesday

    Time Temperature Precipitation Wind Pressure Humidity
    00:00 +23°C° 0 mm 0 mps 712 mmHg 49%
    01:00 +23°C° 0 mm 0 mps 712 mmHg 48%
    02:00 +23°C° 0 mm 0 mps 711 mmHg 48%
    03:00 +22°C° 0 mm 0 mps 711 mmHg 47%
    04:00 +25°C° 0 mm 1 mps 711 mmHg 43%
    05:00 +26°C° 0 mm 1 mps 711 mmHg 40%
    06:00 +27°C° 0 mm 1 mps 712 mmHg 36%
    07:00 +29°C° 0 mm 1 mps 712 mmHg 32%
    08:00 +31°C° 0 mm 1 mps 712 mmHg 28%
    09:00 +32°C° 0 mm 0 mps 713 mmHg 25%
    10:00 +35°C° 0 mm 1 mps 712 mmHg 22%
    11:00 +36°C° 0 mm 1 mps 712 mmHg 20%
    12:00 +38°C° 0 mm 2 mps 712 mmHg 17%
    13:00 +38°C° 0 mm 3 mps 712 mmHg 17%
    14:00 +38°C° 0 mm 4 mps 711 mmHg 16%
    15:00 +39°C° 0 mm 5 mps 711 mmHg 16%
    16:00 +37°C° 0 mm 5 mps 711 mmHg 19%
    17:00 +35°C° 0 mm 5 mps 711 mmHg 22%
    18:00 +34°C° 0 mm 4 mps 710 mmHg 24%
    19:00 +31°C° 0 mm 3 mps 710 mmHg 28%
    20:00 +30°C° 0 mm 2 mps 710 mmHg 32%
    21:00 +28°C° 0 mm 1 mps 710 mmHg 36%
    22:00 +28°C° 0 mm 1 mps 710 mmHg 35%
    23:00 +27°C° 0 mm 1 mps 710 mmHg 34%

    24 July, Wednesday

    Time Temperature Precipitation Wind Pressure Humidity
    00:00 +27°C° 0 mm 1 mps 710 mmHg 34%
    01:00 +26°C° 0 mm 1 mps 709 mmHg 34%
    02:00 +26°C° 0 mm 1 mps 709 mmHg 35%
    03:00 +26°C° 0 mm 1 mps 709 mmHg 35%
    04:00 +27°C° 0 mm 1 mps 709 mmHg 33%
    05:00 +28°C° 0 mm 1 mps 709 mmHg 31%
    06:00 +29°C° 0 mm 2 mps 709 mmHg 29%
    07:00 +31°C° 0 mm 2 mps 710 mmHg 26%
    08:00 +34°C° 0 mm 2 mps 710 mmHg 23%
    09:00 +36°C° 0 mm 2 mps 710 mmHg 20%
    10:00 +37°C° 0 mm 2 mps 710 mmHg 19%
    11:00 +38°C° 0 mm 2 mps 710 mmHg 17%
    12:00 +39°C° 0 mm 2 mps 710 mmHg 15%
    13:00 +39°C° 0 mm 3 mps 709 mmHg 15%
    14:00 +39°C° 0 mm 3 mps 709 mmHg 14%
    15:00 +41°C° 0 mm 4 mps 709 mmHg 14%
    16:00 +38°C° 0 mm 4 mps 708 mmHg 17%
    17:00 +37°C° 0 mm 4 mps 708 mmHg 19%
    18:00 +35°C° 0 mm 3 mps 708 mmHg 21%
    19:00 +32°C° 0 mm 2 mps 708 mmHg 24%
    20:00 +31°C° 0 mm 1 mps 708 mmHg 26%
    21:00 +29°C° 0 mm 1 mps 708 mmHg 29%
    22:00 +29°C° 0 mm 1 mps 707 mmHg 29%
    23:00 +29°C° 0 mm 1 mps 707 mmHg 30%
    Show more